Time,TemperatureF,DewpointF,PressureIn,WindDirection,WindDirectionDegrees,WindSpeedMPH,WindSpeedGustMPH,Humidity,HourlyPrecipIn,Conditions,Clouds,dailyrainin,SoftwareType,DateUTC
2013-02-23 00:01:00,47.0,46.0,30.01,SE,133,1.0,-999.0,96,-99.99,,,0.06,,2013-02-23 06:01:00,
2013-02-23 00:11:00,47.0,46.0,30.01,SE,133,1.0,-999.0,96,-99.99,,,0.06,,2013-02-23 06:11:00,
2013-02-23 00:22:00,47.0,46.0,30.01,SE,133,1.0,-999.0,96,-99.99,,,0.06,,2013-02-23 06:22:00,
2013-02-23 00:31:00,47.0,46.0,30.02,WNW,303,0.0,-999.0,96,-99.99,,,0.08,,2013-02-23 06:31:00,
2013-02-23 00:41:00,47.0,46.0,30.02,WNW,303,0.0,-999.0,96,-99.99,,,0.08,,2013-02-23 06:41:00,
2013-02-23 00:52:00,47.0,46.0,30.03,WNW,303,0.0,-999.0,96,-99.99,,,0.09,,2013-02-23 06:52:00,
2013-02-23 01:01:00,47.0,46.0,30.02,SW,230,0.0,-999.0,96,-99.99,,,0.09,,2013-02-23 07:01:00,
2013-02-23 01:11:00,47.0,46.0,30.02,SW,230,0.0,-999.0,96,-99.99,,,0.09,,2013-02-23 07:11:00,
2013-02-23 01:21:00,47.0,46.0,30.02,SW,230,0.0,-999.0,96,-99.99,,,0.09,,2013-02-23 07:21:00,
2013-02-23 01:31:00,47.0,46.0,30.01,WSW,243,1.0,-999.0,97,-99.99,,,0.10,,2013-02-23 07:31:00,
2013-02-23 01:41:00,47.0,46.0,30.01,WSW,243,1.0,-999.0,97,-99.99,,,0.10,,2013-02-23 07:41:00,
2013-02-23 01:52:00,46.0,45.0,29.99,WSW,243,0.0,-999.0,97,-99.99,,,0.10,,2013-02-23 07:52:00,
2013-02-23 02:01:00,47.0,46.0,30.00,WSW,243,0.0,-999.0,97,-99.99,,,0.10,,2013-02-23 08:01:00,
2013-02-23 02:11:00,47.0,46.0,30.00,WSW,243,0.0,-999.0,97,-99.99,,,0.10,,2013-02-23 08:11:00,
2013-02-23 02:21:00,47.0,46.0,29.98,WSW,243,1.0,-999.0,97,-99.99,,,0.10,,2013-02-23 08:21:00,
2013-02-23 02:31:00,47.0,46.0,29.98,WSW,243,0.0,-999.0,97,-99.99,,,0.11,,2013-02-23 08:31:00,
2013-02-23 02:41:00,47.0,46.0,29.98,WSW,243,0.0,-999.0,97,-99.99,,,0.11,,2013-02-23 08:41:00,
2013-02-23 02:52:00,47.0,46.0,29.98,WSW,243,0.0,-999.0,97,-99.99,,,0.11,,2013-02-23 08:52:00,
2013-02-23 03:01:00,47.0,46.0,29.98,WSW,243,0.0,-999.0,97,-99.99,,,0.11,,2013-02-23 09:01:00,
2013-02-23 03:11:00,47.0,46.0,29.98,WSW,243,0.0,-999.0,97,-99.99,,,0.11,,2013-02-23 09:11:00,
2013-02-23 03:21:00,47.0,46.0,29.98,WSW,251,1.0,-999.0,97,-99.99,,,0.11,,2013-02-23 09:21:00,
2013-02-23 03:32:00,47.0,46.0,29.97,WSW,251,0.0,-999.0,97,-99.99,,,0.11,,2013-02-23 09:32:00,
2013-02-23 03:42:00,47.0,46.0,29.97,WSW,251,0.0,-999.0,97,-99.99,,,0.11,,2013-02-23 09:42:00,
2013-02-23 03:52:00,47.0,46.0,29.97,WSW,251,1.0,-999.0,97,-99.99,,,0.11,,2013-02-23 09:52:00,
2013-02-23 04:01:00,47.0,46.0,29.97,WSW,251,0.0,-999.0,97,-99.99,,,0.11,,2013-02-23 10:01:00,
2013-02-23 04:11:00,47.0,46.0,29.97,WSW,251,0.0,-999.0,97,-99.99,,,0.11,,2013-02-23 10:11:00,
2013-02-23 04:21:00,47.0,46.0,29.97,WSW,251,0.0,-999.0,97,-99.99,,,0.11,,2013-02-23 10:21:00,
2013-02-23 04:31:00,47.0,46.0,29.96,WSW,251,0.0,-999.0,97,-99.99,,,0.11,,2013-02-23 10:31:00,
2013-02-23 04:42:00,47.0,46.0,29.96,WSW,251,0.0,-999.0,97,-99.99,,,0.11,,2013-02-23 10:42:00,
2013-02-23 04:52:00,47.0,46.0,29.98,WSW,251,0.0,-999.0,97,-99.99,,,0.11,,2013-02-23 10:52:00,
2013-02-23 05:02:00,47.0,46.0,29.97,WSW,251,0.0,-999.0,97,-99.99,,,0.11,,2013-02-23 11:02:00,
2013-02-23 05:11:00,47.0,46.0,29.97,WSW,251,0.0,-999.0,97,-99.99,,,0.11,,2013-02-23 11:11:00,
2013-02-23 05:21:00,47.0,46.0,29.97,WSW,251,0.0,-999.0,97,-99.99,,,0.11,,2013-02-23 11:21:00,
2013-02-23 05:32:00,47.0,46.0,29.97,WSW,251,0.0,-999.0,97,-99.99,,,0.11,,2013-02-23 11:32:00,
2013-02-23 05:41:00,47.0,46.0,29.97,WSW,251,0.0,-999.0,97,-99.99,,,0.11,,2013-02-23 11:41:00,
2013-02-23 05:52:00,47.0,46.0,29.98,WSW,251,1.0,-999.0,97,-99.99,,,0.11,,2013-02-23 11:52:00,
2013-02-23 06:01:00,47.0,46.0,29.98,WSW,251,1.0,-999.0,97,-99.99,,,0.11,,2013-02-23 12:01:00,
2013-02-23 06:11:00,47.0,46.0,29.98,WSW,251,1.0,-999.0,97,-99.99,,,0.11,,2013-02-23 12:11:00,
2013-02-23 06:21:00,47.0,46.0,29.98,NNW,335,2.0,-999.0,97,-99.99,,,0.11,,2013-02-23 12:21:00,
2013-02-23 06:32:00,47.0,46.0,29.98,NNW,338,1.0,-999.0,97,-99.99,,,0.11,,2013-02-23 12:32:00,
2013-02-23 06:42:00,47.0,46.0,29.98,NNW,338,1.0,-999.0,97,-99.99,,,0.11,,2013-02-23 12:42:00,
2013-02-23 06:52:00,47.0,46.0,29.98,North,359,1.0,-999.0,97,-99.99,,,0.11,,2013-02-23 12:52:00,
2013-02-23 07:01:00,47.0,46.0,29.97,NNW,335,1.0,-999.0,97,-99.99,,,0.11,,2013-02-23 13:01:00,
2013-02-23 07:11:00,47.0,46.0,29.97,NNW,335,1.0,-999.0,97,-99.99,,,0.11,,2013-02-23 13:11:00,
2013-02-23 07:22:00,47.0,46.0,29.98,NNW,339,2.0,-999.0,97,-99.99,,,0.11,,2013-02-23 13:22:00,
2013-02-23 07:32:00,46.0,45.0,29.98,NNW,348,2.0,-999.0,97,-99.99,,,0.11,,2013-02-23 13:32:00,
2013-02-23 07:42:00,46.0,45.0,29.98,NNW,348,2.0,-999.0,97,-99.99,,,0.11,,2013-02-23 13:42:00,
2013-02-23 07:52:00,46.0,45.0,29.98,NNW,334,4.0,-999.0,97,-99.99,,,0.11,,2013-02-23 13:52:00,
2013-02-23 08:02:00,46.0,45.0,29.98,NNW,328,2.0,-999.0,96,-99.99,,,0.11,,2013-02-23 14:02:00,
2013-02-23 08:11:00,46.0,45.0,29.98,NNW,328,2.0,-999.0,96,-99.99,,,0.11,,2013-02-23 14:11:00,
2013-02-23 08:21:00,46.0,45.0,29.99,NNW,329,2.0,-999.0,96,-99.99,,,0.11,,2013-02-23 14:21:00,
2013-02-23 08:32:00,46.0,45.0,29.99,NNW,329,2.0,-999.0,96,-99.99,,,0.11,,2013-02-23 14:32:00,
2013-02-23 08:42:00,46.0,45.0,29.99,NNW,329,2.0,-999.0,96,-99.99,,,0.11,,2013-02-23 14:42:00,
2013-02-23 08:52:00,46.0,45.0,29.99,NNW,329,2.0,-999.0,96,-99.99,,,0.11,,2013-02-23 14:52:00,
2013-02-23 09:22:00,46.0,45.0,29.98,NNW,329,0.0,-999.0,97,-99.99,,,0.11,,2013-02-23 15:22:00,
2013-02-23 09:32:00,46.0,45.0,29.97,ENE,67,2.0,-999.0,97,-99.99,,,0.11,,2013-02-23 15:32:00,
2013-02-23 09:42:00,46.0,45.0,29.97,ENE,67,2.0,-999.0,97,-99.99,,,0.11,,2013-02-23 15:42:00,
2013-02-23 09:51:00,47.0,46.0,29.98,NNE,14,2.0,-999.0,96,-99.99,,,0.11,,2013-02-23 15:51:00,
2013-02-23 10:01:00,47.0,46.0,29.98,North,10,1.0,-999.0,95,-99.99,,,0.11,,2013-02-23 16:01:00,
2013-02-23 10:11:00,47.0,46.0,29.98,North,10,1.0,-999.0,95,-99.99,,,0.11,,2013-02-23 16:11:00,
2013-02-23 10:21:00,47.0,46.0,29.97,NE,55,2.0,-999.0,95,-99.99,,,0.11,,2013-02-23 16:21:00,
2013-02-23 10:31:00,47.0,45.0,29.98,NNE,16,1.0,-999.0,94,-99.99,,,0.11,,2013-02-23 16:31:00,
2013-02-23 10:42:00,47.0,45.0,29.98,NNE,16,1.0,-999.0,94,-99.99,,,0.11,,2013-02-23 16:42:00,
2013-02-23 10:52:00,48.0,46.0,29.98,North,359,2.0,-999.0,93,-99.99,,,0.11,,2013-02-23 16:52:00,
2013-02-23 11:01:00,47.0,45.0,29.99,North,359,1.0,-999.0,93,-99.99,,,0.11,,2013-02-23 17:01:00,
2013-02-23 11:11:00,47.0,45.0,29.99,North,359,1.0,-999.0,93,-99.99,,,0.11,,2013-02-23 17:11:00,
2013-02-23 11:21:00,47.0,45.0,29.99,North,359,1.0,-999.0,93,-99.99,,,0.11,,2013-02-23 17:21:00,
2013-02-23 11:31:00,48.0,46.0,29.98,NNW,337,1.0,-999.0,92,-99.99,,,0.11,,2013-02-23 17:31:00,
2013-02-23 11:42:00,48.0,46.0,29.98,NNW,337,1.0,-999.0,92,-99.99,,,0.11,,2013-02-23 17:42:00,
2013-02-23 11:52:00,48.0,46.0,29.98,NW,308,1.0,-999.0,92,-99.99,,,0.11,,2013-02-23 17:52:00,
2013-02-23 12:01:00,48.0,45.0,29.97,North,354,2.0,-999.0,91,-99.99,,,0.11,,2013-02-23 18:01:00,
2013-02-23 12:12:00,48.0,45.0,29.97,North,354,2.0,-999.0,91,-99.99,,,0.11,,2013-02-23 18:12:00,
2013-02-23 12:21:00,48.0,45.0,29.96,NW,326,4.0,-999.0,88,-99.99,,,0.11,,2013-02-23 18:21:00,
2013-02-23 12:32:00,49.0,46.0,29.96,NW,311,3.0,-999.0,88,-99.99,,,0.11,,2013-02-23 18:32:00,
2013-02-23 12:42:00,49.0,46.0,29.96,NW,311,3.0,-999.0,88,-99.99,,,0.11,,2013-02-23 18:42:00,
2013-02-23 12:52:00,49.0,46.0,29.96,NW,323,2.0,-999.0,88,-99.99,,,0.11,,2013-02-23 18:52:00,
2013-02-23 13:01:00,49.0,46.0,29.96,NW,323,2.0,-999.0,88,-99.99,,,0.11,,2013-02-23 19:01:00,
2013-02-23 13:11:00,49.0,46.0,29.96,NW,323,2.0,-999.0,88,-99.99,,,0.11,,2013-02-23 19:11:00,
2013-02-23 13:21:00,49.0,46.0,29.96,NW,323,2.0,-999.0,88,-99.99,,,0.11,,2013-02-23 19:21:00,
2013-02-23 13:32:00,50.0,45.0,29.96,WNW,299,3.0,-999.0,84,-99.99,,,0.11,,2013-02-23 19:32:00,
2013-02-23 13:42:00,50.0,45.0,29.96,WNW,299,3.0,-999.0,84,-99.99,,,0.11,,2013-02-23 19:42:00,
2013-02-23 13:52:00,50.0,46.0,29.95,WNW,299,1.0,-999.0,85,-99.99,,,0.11,,2013-02-23 19:52:00,
2013-02-23 14:01:00,50.0,46.0,29.95,WNW,299,1.0,-999.0,85,-99.99,,,0.11,,2013-02-23 20:01:00,
2013-02-23 14:11:00,50.0,46.0,29.95,WNW,299,1.0,-999.0,85,-99.99,,,0.11,,2013-02-23 20:11:00,
2013-02-23 14:21:00,50.0,45.0,29.94,NW,305,2.0,-999.0,83,-99.99,,,0.11,,2013-02-23 20:21:00,
2013-02-23 14:32:00,50.0,45.0,29.94,NW,305,2.0,-999.0,83,-99.99,,,0.11,,2013-02-23 20:32:00,
2013-02-23 14:41:00,50.0,45.0,29.94,NW,305,2.0,-999.0,83,-99.99,,,0.11,,2013-02-23 20:41:00,
2013-02-23 14:52:00,51.0,45.0,29.94,NW,305,2.0,-999.0,80,-99.99,,,0.11,,2013-02-23 20:52:00,
2013-02-23 15:01:00,52.0,46.0,29.94,WNW,284,2.0,-999.0,80,-99.99,,,0.11,,2013-02-23 21:01:00,
2013-02-23 15:11:00,52.0,46.0,29.93,WNW,283,2.0,-999.0,80,-99.99,,,0.11,,2013-02-23 21:11:00,
2013-02-23 15:22:00,52.0,46.0,29.93,WNW,283,2.0,-999.0,80,-99.99,,,0.11,,2013-02-23 21:22:00,
2013-02-23 15:32:00,52.0,46.0,29.92,WNW,283,0.0,-999.0,79,-99.99,,,0.11,,2013-02-23 21:32:00,
2013-02-23 15:41:00,52.0,46.0,29.92,WNW,283,0.0,-999.0,79,-99.99,,,0.11,,2013-02-23 21:41:00,
2013-02-23 15:52:00,52.0,46.0,29.91,WNW,283,0.0,-999.0,79,-99.99,,,0.11,,2013-02-23 21:52:00,
2013-02-23 16:01:00,53.0,46.0,29.90,WNW,283,0.0,-999.0,78,-99.99,,,0.11,,2013-02-23 22:01:00,
2013-02-23 16:11:00,53.0,46.0,29.90,WNW,283,1.0,-999.0,76,-99.99,,,0.11,,2013-02-23 22:11:00,
2013-02-23 16:21:00,53.0,46.0,29.90,WNW,283,1.0,-999.0,76,-99.99,,,0.11,,2013-02-23 22:21:00,
2013-02-23 16:31:00,52.0,45.0,29.90,WNW,283,2.0,-999.0,78,-99.99,,,0.11,,2013-02-23 22:31:00,
2013-02-23 16:42:00,52.0,45.0,29.90,WNW,283,2.0,-999.0,78,-99.99,,,0.11,,2013-02-23 22:42:00,
2013-02-23 16:52:00,52.0,46.0,29.90,WNW,283,1.0,-999.0,80,-99.99,,,0.11,,2013-02-23 22:52:00,
2013-02-23 17:01:00,52.0,46.0,29.90,WNW,283,2.0,-999.0,80,-99.99,,,0.11,,2013-02-23 23:01:00,
2013-02-23 17:11:00,51.0,45.0,29.89,WNW,283,1.0,-999.0,81,-99.99,,,0.11,,2013-02-23 23:11:00,
2013-02-23 17:21:00,51.0,45.0,29.89,WNW,283,1.0,-999.0,81,-99.99,,,0.11,,2013-02-23 23:21:00,
2013-02-23 17:31:00,51.0,45.0,29.89,WNW,283,0.0,-999.0,81,-99.99,,,0.11,,2013-02-23 23:31:00,
2013-02-23 17:42:00,51.0,45.0,29.89,WNW,283,0.0,-999.0,81,-99.99,,,0.11,,2013-02-23 23:42:00,
2013-02-23 17:52:00,51.0,45.0,29.89,WNW,283,0.0,-999.0,81,-99.99,,,0.11,,2013-02-23 23:52:00,
2013-02-23 18:01:00,49.0,45.0,29.91,WNW,283,0.0,-999.0,86,-99.99,,,0.11,,2013-02-24 00:01:00,
2013-02-23 18:11:00,49.0,45.0,29.91,WNW,283,0.0,-999.0,86,-99.99,,,0.11,,2013-02-24 00:11:00,
2013-02-23 18:22:00,49.0,45.0,29.91,WNW,283,0.0,-999.0,86,-99.99,,,0.11,,2013-02-24 00:22:00,
2013-02-23 18:32:00,47.0,44.0,29.92,WNW,283,0.0,-999.0,89,-99.99,,,0.00,,2013-02-24 00:32:00,
2013-02-23 18:42:00,47.0,44.0,29.92,WNW,283,0.0,-999.0,89,-99.99,,,0.00,,2013-02-24 00:42:00,
2013-02-23 18:52:00,46.0,44.0,29.93,WNW,283,0.0,-999.0,92,-99.99,,,0.00,,2013-02-24 00:52:00,
2013-02-23 19:01:00,45.0,43.0,29.93,WNW,283,0.0,-999.0,93,-99.99,,,0.00,,2013-02-24 01:01:00,
2013-02-23 19:11:00,45.0,43.0,29.93,WNW,283,0.0,-999.0,93,-99.99,,,0.00,,2013-02-24 01:11:00,
2013-02-23 19:22:00,44.0,42.0,29.95,WNW,283,0.0,-999.0,93,-99.99,,,0.00,,2013-02-24 01:22:00,
2013-02-23 19:31:00,43.0,41.0,29.96,WNW,283,0.0,-999.0,94,-99.99,,,0.00,,2013-02-24 01:31:00,
2013-02-23 19:41:00,43.0,41.0,29.96,WNW,283,0.0,-999.0,94,-99.99,,,0.00,,2013-02-24 01:41:00,
2013-02-23 19:52:00,42.0,40.0,29.96,WNW,283,0.0,-999.0,94,-99.99,,,0.00,,2013-02-24 01:52:00,
2013-02-23 20:01:00,42.0,41.0,29.97,WNW,283,0.0,-999.0,95,-99.99,,,0.00,,2013-02-24 02:01:00,
2013-02-23 20:11:00,42.0,41.0,29.97,WNW,283,0.0,-999.0,95,-99.99,,,0.00,,2013-02-24 02:11:00,
2013-02-23 20:21:00,41.0,40.0,29.97,WNW,283,0.0,-999.0,95,-99.99,,,0.00,,2013-02-24 02:21:00,
2013-02-23 20:32:00,41.0,40.0,29.97,WNW,283,0.0,-999.0,95,-99.99,,,0.00,,2013-02-24 02:32:00,
2013-02-23 20:41:00,41.0,40.0,29.97,WNW,283,0.0,-999.0,95,-99.99,,,0.00,,2013-02-24 02:41:00,
2013-02-23 20:52:00,40.0,39.0,29.97,WNW,283,0.0,-999.0,95,-99.99,,,0.00,,2013-02-24 02:52:00,
2013-02-23 21:02:00,40.0,39.0,29.98,WNW,283,0.0,-999.0,96,-99.99,,,0.00,,2013-02-24 03:02:00,
2013-02-23 21:11:00,40.0,39.0,29.98,WNW,283,0.0,-999.0,96,-99.99,,,0.00,,2013-02-24 03:11:00,
2013-02-23 21:21:00,40.0,39.0,29.98,WNW,283,0.0,-999.0,96,-99.99,,,0.00,,2013-02-24 03:21:00,
2013-02-23 21:31:00,40.0,39.0,29.98,WNW,283,0.0,-999.0,96,-99.99,,,0.00,,2013-02-24 03:31:00,
2013-02-23 21:42:00,40.0,39.0,29.98,WNW,283,0.0,-999.0,96,-99.99,,,0.00,,2013-02-24 03:42:00,
2013-02-23 21:52:00,39.0,38.0,29.98,WNW,283,0.0,-999.0,96,-99.99,,,0.00,,2013-02-24 03:52:00,
2013-02-23 22:01:00,39.0,38.0,29.98,WNW,283,0.0,-999.0,96,-99.99,,,0.00,,2013-02-24 04:01:00,
2013-02-23 22:11:00,39.0,38.0,29.98,WNW,283,0.0,-999.0,96,-99.99,,,0.00,,2013-02-24 04:11:00,
2013-02-23 22:21:00,38.0,37.0,29.98,WNW,283,0.0,-999.0,96,-99.99,,,0.00,,2013-02-24 04:21:00,
2013-02-23 22:32:00,38.0,37.0,29.98,WNW,283,0.0,-999.0,96,-99.99,,,0.00,,2013-02-24 04:32:00,
2013-02-23 22:42:00,38.0,37.0,29.98,WNW,283,0.0,-999.0,96,-99.99,,,0.00,,2013-02-24 04:42:00,
2013-02-23 22:52:00,38.0,37.0,29.98,WNW,283,0.0,-999.0,96,-99.99,,,0.00,,2013-02-24 04:52:00,
2013-02-23 23:01:00,38.0,37.0,29.98,WNW,283,0.0,-999.0,96,-99.99,,,0.00,,2013-02-24 05:01:00,
2013-02-23 23:11:00,38.0,37.0,29.98,WNW,283,0.0,-999.0,96,-99.99,,,0.00,,2013-02-24 05:11:00,
2013-02-23 23:22:00,37.0,36.0,29.98,WNW,283,0.0,-999.0,97,-99.99,,,0.00,,2013-02-24 05:22:00,
2013-02-23 23:32:00,37.0,36.0,29.99,WNW,283,0.0,-999.0,96,-99.99,,,0.00,,2013-02-24 05:32:00,
2013-02-23 23:42:00,37.0,36.0,29.99,WNW,283,0.0,-999.0,96,-99.99,,,0.00,,2013-02-24 05:42:00,
2013-02-23 23:52:00,37.0,36.0,29.99,WNW,283,0.0,-999.0,97,-99.99,,,0.00,,2013-02-24 05:52:00,